Weather History for Des Moines, IA

Change the Weather History Date:

Thursday, February 7, 2013

  Actual Average Record
Temperature  
Mean Temperature 36 °F 25 °F  
Max Temperature 43 °F 34 °F 63 °F (1987)
Min Temperature 29 °F 16 °F -21 °F (1905)
Degree Days  
Heating Degree Days 29 40  
Month to date heating degree days 263 285  
Since 1 July heating degree days 3605 4065  
Cooling Degree Days 0 0  
Month to date cooling degree days 0 0  
Year to date cooling degree days 0 0  
Moisture  
Dew Point 32 °F    
Average Humidity 85    
Maximum Humidity 92    
Minimum Humidity 78    
Precipitation  
Precipitation 0.30 in 0.04 in 0.75 in (1928)
Month to date precipitation 0.34 0.28  
Year to date precipitation 1.45 1.28  
Snow  
Snow T in 0.40 in 3.40 in (2005)
Month to date snowfall 0.5 2.3  
Since 1 July snowfall 23.5 22.7  
Snow Depth T in    
Sea Level Pressure  
Sea Level Pressure 30.01 in    
Wind  
Wind Speed 11 mph (NNW)    
Max Wind Speed 20 mph    
Max Gust Speed 26 mph    
Visibility 4 miles    
Events Rain , Snow    
T = Trace of Precipitation, MM = Missing Value Source: NWS Daily Summary

Daily Weather History Graph

Daily Weather History Graph

Search for Another Location

Airport:

Trip Planner

Search our weather history database for the weather conditions in past years. The results will help you decide how hot, cold, wet, or windy it might be!

Date:

Astronomy

Feb. 07, 2013 Rise Set
Actual Time 7:19 AM CST 5:38 PM CST
Civil Twilight 6:50 AM CST 6:07 PM CST
Nautical Twilight 6:17 AM CST 6:40 PM CST
Astronomical Twilight 5:45 AM CST 7:12 PM CST
Moon 5:00 AM CST (2/7) 3:02 PM CST (2/7)
Length of Visible Light 11h 16m
Length of Day
10h 19m
Waning Crescent, 9% of the Moon is Illuminated
Feb 7
Waning Crescent
Feb 10
New
Feb 17
First Quarter
Feb 25
Full
Mar 4
Last Quarter

Hourly Weather History & Observations

Time (CST) Temp. Windchill Dew Point Humidity Pressure Visibility Wind Dir Wind Speed Gust Speed Precip Events Conditions
12:54 AM 41.0 °F 35.8 °F 33.1 °F 73% 29.93 in 10.0 mi SSE 8.1 mph - 0.00 in Rain Light Rain
1:54 AM 39.9 °F 33.4 °F 36.0 °F 86% 29.91 in 10.0 mi SSE 10.4 mph - 0.03 in Rain Light Rain
2:54 AM 41.0 °F 36.4 °F 37.0 °F 86% 29.91 in 10.0 mi South 6.9 mph - 0.00 in   Overcast
3:54 AM 42.1 °F 40.2 °F 37.0 °F 82% 29.90 in 10.0 mi SE 3.5 mph - 0.00 in Rain Light Rain
4:30 AM 41.0 °F - 37.0 °F 86% 29.89 in 10.0 mi Calm Calm - 0.00 in Rain Light Rain
4:54 AM 39.0 °F - 36.0 °F 89% 29.91 in 7.0 mi Calm Calm - 0.01 in Rain Light Rain
5:21 AM 39.0 °F - 37.0 °F 93% 29.89 in 6.0 mi Calm Calm - 0.00 in Rain Light Rain
5:54 AM 39.9 °F 37.8 °F 37.9 °F 93% 29.91 in 3.0 mi South 3.5 mph - 0.02 in Rain Light Rain
6:38 AM 39.0 °F - 37.9 °F 96% 29.90 in 2.5 mi Calm Calm - 0.01 in Rain Light Rain
6:54 AM 39.9 °F - 37.9 °F 93% 29.91 in 2.5 mi Calm Calm - 0.02 in Rain Light Rain
7:32 AM 39.0 °F 34.8 °F 37.0 °F 93% 29.91 in 2.0 mi NW 5.8 mph - 0.05 in Rain Light Rain
7:54 AM 39.0 °F 34.0 °F 37.9 °F 96% 29.93 in 1.0 mi NNW 6.9 mph - 0.07 in Rain Light Rain
8:28 AM 39.0 °F 31.4 °F 36.0 °F 89% 29.94 in 2.0 mi WNW 12.7 mph - 0.03 in Rain Light Rain
8:37 AM 37.9 °F 29.2 °F 36.0 °F 93% 29.94 in 2.0 mi NW 15.0 mph - 0.04 in Rain Light Rain
8:54 AM 37.0 °F 30.4 °F 35.1 °F 93% 29.96 in 2.0 mi NNW 9.2 mph - 0.05 in Rain Light Rain
9:07 AM 37.0 °F 30.4 °F 34.0 °F 89% 29.95 in 4.0 mi NNW 9.2 mph - 0.01 in Rain Light Rain
9:32 AM 37.0 °F 29.3 °F 35.1 °F 93% 29.95 in 2.5 mi North 11.5 mph - 0.03 in Rain Rain
9:44 AM 37.0 °F 28.1 °F 34.0 °F 89% 29.95 in 3.0 mi North 15.0 mph - 0.05 in Rain Light Rain
9:54 AM 37.0 °F 28.9 °F 34.0 °F 89% 29.98 in 3.0 mi North 12.7 mph - 0.06 in Rain Light Rain
10:54 AM 35.1 °F 26.9 °F 33.1 °F 92% 29.99 in 3.0 mi North 11.5 mph - 0.04 in Rain Light Rain
11:54 AM 34.0 °F 24.6 °F 30.9 °F 89% 30.00 in 2.5 mi NW 13.8 mph - 0.00 in   Overcast
12:02 PM 34.0 °F 23.0 °F 30.9 °F 89% 29.98 in 2.5 mi NW 18.4 mph - N/A   Overcast
12:54 PM 33.1 °F 23.0 °F 30.0 °F 89% 30.00 in 1.8 mi NNW 15.0 mph - N/A   Overcast
1:20 PM 33.1 °F 23.4 °F 30.0 °F 89% 29.98 in 2.0 mi NNW 13.8 mph 24.2 mph N/A   Overcast
1:34 PM 33.1 °F 23.4 °F 30.0 °F 89% 29.98 in 1.8 mi NNW 13.8 mph - N/A   Overcast
1:54 PM 33.1 °F 23.0 °F 30.0 °F 89% 30.01 in 1.8 mi NNW 15.0 mph - N/A   Overcast
2:54 PM 32.0 °F 22.1 °F 28.9 °F 88% 30.03 in 2.5 mi NNW 13.8 mph - N/A   Overcast
3:54 PM 32.0 °F 22.5 °F 28.0 °F 85% 30.05 in 2.0 mi NNW 12.7 mph - N/A   Overcast
4:54 PM 30.9 °F 21.2 °F 28.0 °F 89% 30.08 in 2.0 mi NNW 12.7 mph - N/A   Overcast
5:42 PM 30.9 °F 21.2 °F 27.0 °F 85% 30.08 in 3.0 mi NNW 12.7 mph - N/A   Overcast
5:54 PM 30.9 °F 21.2 °F 27.0 °F 85% 30.12 in 4.0 mi NNW 12.7 mph - N/A   Overcast
6:54 PM 30.9 °F 20.2 °F 26.1 °F 82% 30.15 in 7.0 mi NNW 15.0 mph 23.0 mph N/A   Overcast
7:54 PM 30.0 °F 17.9 °F 25.0 °F 82% 30.16 in 7.0 mi North 18.4 mph - N/A   Overcast
8:54 PM 30.0 °F 19.5 °F 25.0 °F 82% 30.17 in 7.0 mi NNW 13.8 mph - N/A   Overcast
9:54 PM 30.0 °F 20.0 °F 25.0 °F 82% 30.19 in 8.0 mi North 12.7 mph - N/A   Overcast
10:34 PM 28.9 °F 18.6 °F 25.0 °F 85% 30.18 in 7.0 mi North 12.7 mph - 0.00 in Snow Light Snow
10:54 PM 28.9 °F 17.7 °F 25.0 °F 85% 30.21 in 7.0 mi North 15.0 mph - 0.00 in Snow Light Snow
11:54 PM 28.9 °F 19.2 °F 24.1 °F 82% 30.23 in 8.0 mi NNW 11.5 mph - 0.00 in Snow Light Snow